| time (UTC) | temp C | wind direction | speed KPH | gust KPH | rain 1hr cm | rain 24hr cm | rain mn cm | humidity % | barometer mb |
| 20260902163048 | 22 | 180 | 11.3 | 17.7 | 0.00 | 0.00 | 0.00 | 44 | 1002.4 |
| 20260902161518 | 21 | 182 | 8.0 | 11.3 | 0.00 | 0.00 | 0.00 | 46 | 1002.4 |
| 20260902160017 | 21 | 205 | 9.7 | 14.5 | 0.00 | 0.00 | 0.00 | 47 | 1002.5 |
| 20260902154558 | 20 | 216 | 11.3 | 14.5 | 0.00 | 0.00 | 0.00 | 48 | 1002.8 |
| 20260902153109 | 20 | 211 | 9.7 | 14.5 | 0.00 | 0.00 | 0.00 | 50 | 1002.9 |
| 20260902151543 | 19 | 202 | 9.7 | 14.5 | 0.00 | 0.00 | 0.00 | 51 | 1003.0 |
| 20260902150037 | 18 | 238 | 9.7 | 14.5 | 0.00 | 0.00 | 0.00 | 52 | 1003.1 |
| 20260902144521 | 17 | 185 | 11.3 | 14.5 | 0.00 | 0.00 | 0.00 | 55 | 1003.4 |
| 20260902143018 | 17 | 193 | 8.0 | 12.9 | 0.00 | 0.00 | 0.00 | 55 | 1003.6 |
| 20260902141502 | 17 | 205 | 8.0 | 9.7 | 0.00 | 0.00 | 0.00 | 57 | 1003.6 |
| 20260902140100 | 16 | 210 | 4.8 | 6.4 | 0.00 | 0.00 | 0.00 | 59 | 1003.7 |
| 20260902134601 | 15 | 210 | 3.2 | 6.4 | 0.00 | 0.00 | 0.00 | 60 | 1003.7 |
| 20260902133042 | 13 | 168 | 4.8 | 8.0 | 0.00 | 0.00 | 0.00 | 64 | 1003.7 |
| 20260902131541 | 12 | 168 | 3.2 | 8.0 | 0.00 | 0.00 | 0.00 | 66 | 1003.8 |
| 20260902130023 | 12 | 184 | 8.0 | 12.9 | 0.00 | 0.00 | 0.00 | 66 | 1004.0 |
| 20260902124521 | 13 | 185 | 12.9 | 20.9 | 0.00 | 0.00 | 0.00 | 63 | 1003.9 |
| 20260902123002 | 13 | 207 | 6.4 | 11.3 | 0.00 | 0.00 | 0.00 | 63 | 1003.4 |
| 20260902121502 | 13 | 306 | 4.8 | 11.3 | 0.00 | 0.00 | 0.00 | 63 | 1003.3 |
| 20260902120056 | 13 | 288 | 9.7 | 14.5 | 0.00 | 0.00 | 0.00 | 62 | 1003.4 |
| 20260902114542 | 14 | 290 | 11.3 | 16.1 | 0.00 | 0.00 | 0.00 | 60 | 1003.4 |
| 20260902113024 | 13 | 269 | 12.9 | 16.1 | 0.00 | 0.00 | 0.00 | 62 | 1003.7 |
| 20260902111533 | 12 | 247 | 11.3 | 14.5 | 0.00 | 0.00 | 0.00 | 63 | 1003.8 |
| 20260902110000 | 13 | 226 | 16.1 | 22.5 | 0.00 | 0.00 | 0.00 | 61 | 1004.0 |
| 20260902104600 | 13 | 207 | 16.1 | 20.9 | 0.00 | 0.00 | 0.00 | 61 | 1004.0 |
| 20260902103044 | 13 | 201 | 19.3 | 22.5 | 0.00 | 0.00 | 0.00 | 60 | 1003.9 |
| 20260902101538 | 14 | 202 | 14.5 | 22.5 | 0.00 | 0.00 | 0.00 | 59 | 1003.9 |
| 20260902100020 | 14 | 189 | 19.3 | 22.5 | 0.00 | 0.00 | 0.00 | 58 | 1004.0 |
| 20260902094517 | 14 | 185 | 16.1 | 19.3 | 0.00 | 0.00 | 0.00 | 57 | 1004.0 |
| 20260902093058 | 15 | 171 | 16.1 | 20.9 | 0.00 | 0.00 | 0.00 | 55 | 1004.3 |
| 20260902091556 | 15 | 166 | 12.9 | 16.1 | 0.00 | 0.00 | 0.00 | 55 | 1004.1 |
| 20260902090044 | 15 | 166 | 12.9 | 17.7 | 0.00 | 0.00 | 0.00 | 53 | 1004.2 |
| 20260902084543 | 16 | 175 | 16.1 | 19.3 | 0.00 | 0.00 | 0.00 | 51 | 1004.4 |
| 20260902083044 | 16 | 172 | 14.5 | 20.9 | 0.00 | 0.00 | 0.00 | 52 | 1004.5 |
| 20260902081542 | 15 | 190 | 12.9 | 17.7 | 0.00 | 0.00 | 0.00 | 54 | 1004.7 |
| 20260902080040 | 15 | 196 | 9.7 | 16.1 | 0.00 | 0.00 | 0.00 | 51 | 1004.7 |
| 20260902074541 | 16 | 145 | 12.9 | 17.7 | 0.00 | 0.00 | 0.00 | 51 | 1004.5 |
| 20260902073036 | 16 | 123 | 16.1 | 19.3 | 0.00 | 0.00 | 0.00 | 50 | 1004.3 |
| 20260902071534 | 16 | 128 | 17.7 | 20.9 | 0.00 | 0.00 | 0.00 | 49 | 1004.3 |
| 20260902070013 | 17 | 134 | 14.5 | 17.7 | 0.00 | 0.00 | 0.00 | 48 | 1004.4 |
| 20260902064510 | 17 | 144 | 14.5 | 16.1 | 0.00 | 0.00 | 0.00 | 47 | 1004.5 |
| 20260902063058 | 18 | 141 | 12.9 | 16.1 | 0.00 | 0.00 | 0.00 | 46 | 1004.7 |
| 20260902061551 | 18 | 150 | 11.3 | 14.5 | 0.00 | 0.00 | 0.00 | 46 | 1004.8 |
| 20260902060032 | 18 | 141 | 11.3 | 16.1 | 0.00 | 0.00 | 0.00 | 46 | 1004.8 |
| 20260902054538 | 18 | 142 | 14.5 | 19.3 | 0.00 | 0.00 | 0.00 | 46 | 1004.9 |
| 20260902053014 | 17 | 146 | 14.5 | 19.3 | 0.00 | 0.00 | 0.00 | 46 | 1004.9 |
| 20260902051512 | 18 | 134 | 14.5 | 19.3 | 0.00 | 0.00 | 0.00 | 45 | 1005.0 |
| 20260902044554 | 18 | 127 | 14.5 | 17.7 | 0.00 | 0.00 | 0.00 | 45 | 1005.0 |
| 20260902043043 | 18 | 121 | 14.5 | 19.3 | 0.00 | 0.00 | 0.00 | 44 | 1005.1 |
| 20260902041532 | 18 | 105 | 11.3 | 17.7 | 0.00 | 0.00 | 0.00 | 44 | 1005.1 |
| 20260902040013 | 18 | 126 | 14.5 | 17.7 | 0.00 | 0.00 | 0.00 | 43 | 1005.2 |
| 20260902034511 | 19 | 146 | 14.5 | 17.7 | 0.00 | 0.00 | 0.00 | 43 | 1005.4 |
| 20260902033051 | 20 | 138 | 12.9 | 16.1 | 0.00 | 0.00 | 0.00 | 40 | 1005.3 |
| 20260902031550 | 21 | 137 | 11.3 | 14.5 | 0.00 | 0.00 | 0.00 | 38 | 1005.4 |
| 20260902030030 | 21 | 132 | 11.3 | 14.5 | 0.00 | 0.00 | 0.00 | 38 | 1005.4 |
| 20260902024529 | 21 | 134 | 12.9 | 14.5 | 0.00 | 0.00 | 0.00 | 37 | 1005.3 |
| 20260902023012 | 21 | 129 | 11.3 | 12.9 | 0.00 | 0.00 | 0.00 | 36 | 1005.2 |
| 20260902021512 | 22 | 134 | 9.7 | 14.5 | 0.00 | 0.00 | 0.00 | 35 | 1005.2 |
| 20260902020108 | 23 | 140 | 9.7 | 12.9 | 0.00 | 0.00 | 0.00 | 32 | 1005.2 |
| 20260902014554 | 24 | 127 | 14.5 | 19.3 | 0.00 | 0.00 | 0.00 | 30 | 1005.1 |
| 20260902013040 | 25 | 115 | 12.9 | 16.1 | 0.00 | 0.00 | 0.00 | 28 | 1005.1 |
| 20260902011539 | 26 | 121 | 9.7 | 17.7 | 0.00 | 0.00 | 0.00 | 26 | 1005.1 |
| 20260902010017 | 27 | 140 | 14.5 | 20.9 | 0.00 | 0.00 | 0.00 | 24 | 1005.1 |
| 20260902004518 | 28 | 139 | 14.5 | 24.1 | 0.00 | 0.00 | 0.00 | 23 | 1005.2 |
| 20260902003059 | 28 | 111 | 14.5 | 25.7 | 0.00 | 0.00 | 0.00 | 23 | 1005.2 |
| 20260902001558 | 28 | 132 | 14.5 | 20.9 | 0.00 | 0.00 | 0.00 | 22 | 1005.1 |
| 20260902000040 | 28 | 162 | 14.5 | 22.5 | 0.00 | 0.00 | 0.00 | 21 | 1005.2 |
| 20260901234538 | 28 | 158 | 16.1 | 25.7 | 0.00 | 0.00 | 0.00 | 21 | 1005.4 |
| 20260901233020 | 28 | 162 | 17.7 | 25.7 | 0.00 | 0.00 | 0.00 | 21 | 1005.4 |
| 20260901231523 | 29 | 141 | 17.7 | 25.7 | 0.00 | 0.00 | 0.00 | 21 | 1005.6 |
| 20260901230105 | 28 | 166 | 14.5 | 24.1 | 0.00 | 0.00 | 0.00 | 21 | 1005.8 |
| 20260901224555 | 28 | 173 | 14.5 | 22.5 | 0.00 | 0.00 | 0.00 | 22 | 1006.0 |
| 20260901223044 | 27 | 125 | 16.1 | 24.1 | 0.00 | 0.00 | 0.00 | 23 | 1006.1 |
| 20260901221535 | 27 | 148 | 19.3 | 29.0 | 0.00 | 0.00 | 0.00 | 24 | 1006.2 |
| 20260901220016 | 28 | 161 | 17.7 | 29.0 | 0.00 | 0.00 | 0.00 | 23 | 1006.3 |
| 20260901214515 | 28 | 122 | 17.7 | 25.7 | 0.00 | 0.00 | 0.00 | 23 | 1006.5 |
| 20260901213055 | 27 | 128 | 19.3 | 29.0 | 0.00 | 0.00 | 0.00 | 23 | 1006.6 |
| 20260901211555 | 28 | 150 | 20.9 | 27.4 | 0.00 | 0.00 | 0.00 | 22 | 1006.8 |
| 20260901210037 | 28 | 135 | 24.1 | 32.2 | 0.00 | 0.00 | 0.00 | 23 | 1006.9 |
| 20260901204539 | 28 | 129 | 20.9 | 33.8 | 0.00 | 0.00 | 0.00 | 22 | 1007.0 |
| 20260901203023 | 28 | 165 | 19.3 | 33.8 | 0.00 | 0.00 | 0.00 | 22 | 1007.1 |
| 20260901201513 | 28 | 169 | 20.9 | 37.0 | 0.00 | 0.00 | 0.00 | 23 | 1007.3 |
| 20260901200053 | 28 | 175 | 20.9 | 33.8 | 0.00 | 0.00 | 0.00 | 24 | 1007.5 |
| 20260901194555 | 27 | 117 | 29.0 | 37.0 | 0.00 | 0.00 | 0.00 | 25 | 1007.6 |
| 20260901193035 | 27 | 142 | 27.4 | 35.4 | 0.00 | 0.00 | 0.00 | 26 | 1007.9 |
| 20260901191530 | 27 | 148 | 30.6 | 38.6 | 0.00 | 0.00 | 0.00 | 25 | 1007.9 |
| 20260901190015 | 26 | 142 | 27.4 | 35.4 | 0.00 | 0.00 | 0.00 | 26 | 1008.0 |
| 20260901184529 | 26 | 172 | 27.4 | 37.0 | 0.00 | 0.00 | 0.00 | 25 | 1008.1 |
| 20260901183012 | 26 | 105 | 24.1 | 38.6 | 0.00 | 0.00 | 0.00 | 27 | 1008.2 |
| 20260901181509 | 25 | 122 | 24.1 | 35.4 | 0.00 | 0.00 | 0.00 | 30 | 1008.4 |
| 20260901180006 | 25 | 126 | 27.4 | 40.2 | 0.00 | 0.00 | 0.00 | 31 | 1008.5 |
| 20260901174518 | 25 | 148 | 27.4 | 40.2 | 0.00 | 0.00 | 0.00 | 30 | 1008.6 |
| 20260901173003 | 25 | 175 | 30.6 | 45.1 | 0.00 | 0.00 | 0.00 | 30 | 1008.8 |
| 20260901171612 | 25 | 150 | 30.6 | 40.2 | 0.00 | 0.00 | 0.00 | 30 | 1008.7 |
| 20260901170039 | 23 | 180 | 25.7 | 40.2 | 0.00 | 0.00 | 0.00 | 35 | 1008.8 |
| 20260901164540 | 21 | 153 | 11.3 | 17.7 | 0.00 | 0.00 | 0.00 | 41 | 1009.1 |